◎2004 MN4の軌道と予報位置です 



  年末に2029年の地球接近が話題になったこの小惑星ですが,結局のところ,

地球への接近は,下のとおり,2029年4月13.9日TTに0.000408 AU(6.1万Km)

ほどとなりそうです.なお,今回(2004年)には,地球に12月21日に0.096 AU

まで接近しました.同程度の接近が2013年1月にあります.



Object     P  Date     /TT    Distance  

2004 MN4   3  2004 12 21.4    0.0964   AU

2004 MN4  10  2004 12 20.3    0.0947

2004 MN4   3  2013  1  9.5    0.096619

2004 MN4  10  2013  1  4.3    0.095431

2004 MN4   2  2016  4  2.0    0.095644

2004 MN4   2  2016  4 24.1    0.078298

2004 MN4   3  2029  4 13.9    0.000408

2004 MN4  10  2029  4 14.5    0.000538

2004 MN4   3  2044  4 10.5    0.053219

2004 MN4  10  2044  4 11.6    0.054128

 

2004 MN4                                                                    

Epoch 2005 Jan. 30.0 TT = JDT 2453400.5                 MPC      

M 137.21699              (2000.0)            P               Q

n   1.11268694     Peri.  126.37502     +0.87282391     +0.48744114

a   0.9223322      Node   204.47969     -0.46430909     +0.81418662

e   0.1911073      Incl.    3.33063     -0.15031794     +0.31543825

P   0.89           H   19.3           G   0.15           U   4

Residuals in seconds of arc 

040315 691  0.7-  1.0-    041226 097  0.7+  0.2+    050104 A13  0.4+  0.2+  

040315 691  0.6+  0.5-    041226 097  0.7+  0.2-    050104 A13  0.5+  0.4+  

040315 691  0.9+  0.8-    041226 097  0.3+  0.2+    050104 A13  0.4+  0.3+  

040315 691  0.1+  0.9-    041226 097  0.5+  0.1-    050104 215  0.8+  0.1-  

040315 691  0.6+  1.0-    041226 097  0.6+  0.1+    050104 215  0.0   0.7+  

040619 695  0.3-  0.4-    041226 097  0.5+  0.2-    050104 215  0.1+  0.3-  

040619 695  1.7-  0.5+    041226 097  0.7+  0.2+    050104 215  0.5-  0.7+  

040619 695  0.2+  0.1-    041226 097  0.4+  0.3+    050105 423  0.5-  0.0   

040620 695 (3.2+  1.0-)   041226 097  0.4+  0.0     050105 423  0.2+  0.4-  

040620 695  1.0+  0.9-    041226 097  0.1+  0.1-    050105 423  0.2+  0.2-  

040620 695  1.7+  0.1-    041226 097  0.0   0.0     050105 423  0.2+  0.1-  

041218 E12  0.2-  0.7+    041226 097  0.1-  0.2-    050105 941  0.3+  0.0   

041218 E12  1.0+  0.3-    041226 097  0.8+  0.1+    050105 941  0.1+  0.1+  

041218 E12  0.2-  0.3-    041226 097  0.9+  0.0     050105 941  0.0   0.2-  

041218 E12  0.5-  0.3+    041226 097  0.9+  0.3-    050105 941  0.1+  0.0   

041218 E12  0.0   0.2-    041226 097  0.4+  0.0     050106 H06  0.5-  0.3-  

041218 E12  0.1-  0.3-    041226 097  0.1+  0.3-    050106 H06  0.0   0.4-  

041218 E12  0.1-  0.2-    041226 097  0.1+  0.2-    050106 H06  0.0   0.0   

041218 E12  0.1+  0.3+    041226 097  0.1+  0.2-    050106 423  0.4-  0.2-  

041218 E12  0.5+  0.1+    041226 097  0.1+  0.4-    050106 423  0.2+  0.1-  

041218 E12  0.2+  0.4+    041226 097  0.6+  0.0     050106 423  0.3+  0.2-  

041218 E12  0.5+  0.2-    041226 097  0.4+  0.1+    050106 423  0.1+  0.1-  

041218 E12  0.2-  0.2-    041226 097  0.2+  0.2-    050106 046  0.6-  0.6+  

041219 854  0.6-  1.1-    041226 097  0.8+  0.1-    050106 046  0.3-  0.5+  

041219 854  1.5-  1.4+    041226 097  0.0   0.6-    050106 046  0.3-  0.5+  

041219 854  0.6+  0.4+    041226 097  0.1+  0.9-    050106 046  0.4-  0.8+  

041219 854  1.0-  0.6-    041226 097  0.2+  0.3-    050106 046  0.4-  0.5+  

041219 854  0.3-  0.4-    041226 097  0.5+  0.2-    050106 130  0.6+  0.1-  

041219 474  0.0   0.2-    041226 097  1.1+  0.5+    050106 130  0.0   0.6-  

041219 474  0.1-  0.2-    041226 097  0.9+  0.4+    050106 130  0.2+  0.2-  

041219 474  0.3-  0.4-    041226 097  0.1+  0.5-    050106 130  0.2-  0.5+  

041219 474  0.1-  0.2-    041226 097  0.1+  0.1-    050106 952  0.0   0.8+  

041220 673  1.0-  0.7-    041227 H06  0.7-  0.1+    050106 952  0.0   0.5+  

041220 673  0.7-  0.1-    041227 H06  0.3-  0.6+    050106 A62  0.2-  0.5+  

041220 673  0.8-  0.4-    041227 H06  0.4-  0.3+    050106 104  0.4-  0.6+  

041220 673  0.5-  0.1-    041227 H06  0.5-  0.3+    050106 104  0.1-  0.6+  

041222 E12  0.2+  0.0     041227 097  0.2-  0.4+    050106 952  0.1+  0.4+  

041222 E12  0.2+  0.1-    041227 097  0.2-  0.1+    050106 104  0.3-  0.7+  

041222 E12  0.7-  0.4-    041227 097  0.4-  0.1+    050106 A62  0.2+  0.3+  

041222 E12  0.6+  0.0     041227 097  0.2-  0.4+    050106 A62  0.5+  0.3+  

041223 704 (2.8-  2.3+)   041227 952  0.9+  1.3-    050106 952  0.1-  0.6+  

041223 704  0.5-  0.9+    041227 952  0.8+  0.0     050106 A62  0.4-  0.3+  

041223 704 (2.5-  0.4+)   041227 952  0.5+  0.3-    050106 952  0.0   0.6+  

041223 704  0.7-  0.7-    041227 952  0.2+  0.1-    050107 H41  0.1-  0.3-  

041223 704  1.2-  1.5+    041227 952  0.4+  0.1+    050107 H41  1.3-  0.8-  

041223 704  0.5-  0.3-    041227 952  0.5+  0.1-    050107 H41  0.7-  0.5+  

041223 704  1.7-  0.7+    041227 952  0.2+  0.0     050107 H41  0.0   0.1+  

041223 704  1.1-  0.3-    041227 097  0.0   0.3+    050107 H06  0.8-  0.0   

041223 E12  0.6+  0.3-    041227 952  0.3+  0.3-    050107 H06  0.2-  0.1-  

041223 E12  0.5-  0.1+    041227 952  0.2+  0.5-    050107 H06  0.1-  0.7-  

041223 E12  0.1+  0.1+    041227 941  0.0   0.1-    050107 151  0.0   0.7+  

041223 E12  0.2+  0.3-    041227 952  0.2+  0.1-    050107 151  0.1+  0.3+  

041223 E12  0.1-  0.1-    041227 941  0.0   0.1-    050107 151  0.6+  0.5-  

041223 E12  0.2+  0.0     041227 952  0.2+  0.0     050107 587  0.5+  0.6+  

041223 E12  0.4+  0.2-    041227 941  0.1-  0.3-    050107 587  0.6-  0.2+  

041223 E12  0.2+  0.0     041227 941  0.0   0.2-    050107 587  0.1-  0.2+  

041223 E12  0.1-  0.1+    041227 941  0.2-  0.3-    050108 H06  0.4+  0.1-  

041223 E12  0.7+  0.6-    041227 170  0.8+  0.3+    050108 H06  0.2-  0.0   

041223 E12  0.1+  0.2+    041227 170  0.6+  0.2+    050108 H06  0.5-  0.0   

041223 E12  0.2-  0.1-    041227 170  0.7+  0.2+    050108 F60  0.2-  0.1-  

041223 E12  0.1+  0.1+    041227 170  0.4+  0.1+    050108 F60  0.5+  0.6-  

041223 E12  0.1-  0.4+    041227 170  0.5+  0.0     050108 F60  0.6-  0.4-  

041223 E12  0.5+  0.6-    041227 952  0.3+  0.1+    050108 F60  0.3-  0.2-  

041223 E12  0.0   0.5-    041227 170  0.3+  0.1-    050108 F60  0.3-  0.4-  

041223 E12  0.4+  0.4-    041227 952  0.4+  0.5-    050108 F60  0.4-  1.1-  

041223 E12  0.1-  0.1+    041227 952  0.1+  0.2-    050108 F60  0.6-  0.8-  

041223 E12  0.0   0.6-    041227 952  0.6+  0.3-    050108 F60  0.2+  0.1-  

041223 E12  0.8+  0.6-    041227 952  0.2-  0.6-    050108 F60  0.3+  0.2+  

041224 683  0.6-  0.5-    041227 952  0.6+  0.1+    050108 F60  0.0   0.1-  

041224 683  0.5+  0.2-    041228 649 (2.6-  1.5-)   050108 F60  0.0   0.6+  

041224 699  0.7-  0.0     041228 649  1.2-  1.3-    050108 952  0.2+  0.2+  

041224 699  0.6-  0.2+    041228 649 (2.7-  0.3+)   050108 952  0.0   0.1-  

041224 699  0.6-  0.2+    041228 649  2.1-  0.9-    050108 952  0.1+  0.1+  

041224 699  0.7-  0.2-    041228 649  1.9-  1.1-    050108 952  0.3+  0.2+  

041224 699  0.9+  1.4-    041228 428  0.1+  0.4-    050110 A62  0.6-  0.2+  

041224 699  1.6-  1.0+    041228 428  0.2+  0.2-    050110 A62  0.5-  0.0   

041224 699  0.7-  0.4-    041228 428  0.7+  0.3-    050110 A62  0.4-  0.0   

041224 699  0.8-  0.5+    041228 428  0.6+  0.2-    050110 A62  0.1-  0.1-  

041224 620  0.2+  0.2+    041228 428  0.1-  0.2-    050110 A62  0.2-  0.4-  

041224 620  0.0   0.5+    041229 734  0.4+  0.2+    050110 A62  0.1-  0.3-  

041224 620  0.1+  0.3+    041229 734  0.1-  0.0     050110 A62  0.0   0.0   

041225 H06  1.2-  0.4+    041229 734  0.7+  0.2+    050110 A62  0.1-  0.1+  

041225 H06  1.0-  0.5+    041229 734  0.2+  0.1-    050110 151  0.5+  0.0   

041225 683  0.0   0.2+    041229 300  0.2-  0.8+    050110 A62  0.1-  0.2+  

041225 683  0.1-  0.1+    041229 300  0.1-  1.3-    050110 A62  0.0   0.4+  

041225 H06  0.6-  0.2+    041229 300  1.5+  0.2+    050110 A62  0.4-  0.0   

041225 683  0.6-  0.9-    041229 428  0.8+  0.1+    050110 A13  0.6+  0.4+  

041225 683  0.7-  0.3+    041229 428  0.1-  0.2+    050110 A62  0.0   0.3-  

041225 683  0.0   0.1-    041229 428  0.3-  0.4-    050110 A62  0.6-  0.3+  

041225 683  0.2+  0.6-    041229 428  0.8+  0.2-    050110 A62  0.2-  0.1-  

041225 683  0.5-  0.0     041229 428  0.2+  0.1+    050110 151  0.5+  0.1-  

041225 683  0.2-  0.0     041230 422  0.0   0.0     050110 A62  0.1-  0.0   

041225 683  0.8-  0.3-    041230 422  0.1-  0.0     050110 A62  0.2-  0.0   

041225 683  0.4-  0.4-    041230 422  0.1-  0.0     050110 A62  0.2-  0.4-  

041225 683  0.2-  0.0     041230 423  0.2+  0.5+    050110 151  0.2+  0.0   

041225 683  0.9-  0.5+    041230 423  0.5+  0.5+    050110 A62  0.4-  0.2-  

041225 683  1.0-  0.1-    041230 434 (1.3+  3.7+)   050110 A62  0.5-  0.1-  

041225 683  0.3-  0.4-    041230 434  0.7-  1.2+    050110 A13  0.6+  0.4+  

041225 683  0.2+  0.0     041230 434  0.5+  0.5+    050110 A62  0.5-  0.2-  

041225 683  0.0   0.1-    041230 587  0.5+  0.4+    050110 A62  0.5-  0.0   

041225 683  0.1-  0.4+    041230 434  1.4-  0.4-    050110 A62  0.6-  0.1+  

041225 683  0.8-  0.9-    041230 587  0.8-  0.9+    050110 A62  0.3-  0.0   

041225 683  0.4+  0.4-    041230 434  0.9-  0.4+    050110 A62  0.4-  0.1-  

041225 448  0.1+  0.0     041230 587  0.7-  0.3+    050110 A62  0.4-  0.2+  

041225 448  0.1+  0.1-    041230 587  0.4-  0.9+    050110 A62  0.5-  0.0   

041225 448  0.0   0.1-    041230 587  0.4+  0.1-    050110 A13  0.5+  0.3+  

041226 H36  0.5-  0.7+    041230 176  0.4-  0.3-    050110 A62  0.1-  0.1-  

041226 H36  0.1+  1.0+    041230 176  0.0   0.2-    050110 A62  0.4-  0.1+  

041226 H36  0.4-  0.4-    041230 176  0.1+  0.2-    050110 A62  0.2-  0.2-  

041226 H36  0.2-  0.0     041230 176  0.1-  0.3-    050110 A62  0.1+  0.0   

041226 H36  0.9+  0.0     041230 176  0.0   0.4-    050110 A62  0.2-  0.0   

041226 H36  0.7+  0.5+    041231 I77  1.1+  0.0     050110 A62  0.2-  0.1-  

041226 H06  0.6-  0.2-    041231 I77  0.7+  0.3-    050110 A62  0.1-  0.0   

